Regional Weather Roundup
Issued by NWS

Home | Current Version | Previous Version | Text Only | Print | Product List | Glossary Off
Versions: 1 2 3 4 5 6 7 8 9 10 11 12 13 14 15 16 17 18 19 20 21 22 23 24 25 26 27 28 29 30 31 32 33 34 35 36 37 38 39 40 41 42 43 44 45 46 47 48 49 50

416
ASUS43 KMPX 210010
RWRMN
WEATHER ROUNDUP FOR MINNESOTA
NATIONAL WEATHER SERVICE TWIN CITIES/CHANHASSEN MN
700 PM CDT THU JUL 20 2017


NOTE: "FAIR" INDICATES FEW OR NO CLOUDS BELOW 12,000 FEET WITH NO
SIGNIFICANT WEATHER AND/OR OBSTRUCTIONS TO VISIBILITY. N/A MEANS
CURRENT SKY AND/OR WEATHER CONDITIONS ARE NOT AVAILABLE.

MNZ060>063-068>070-210100-
   Twin Cities Metro

CITY           SKY/WX    TMP DP  RH WIND       PRES   REMARKS
TWIN CITIES    MOSUNNY   88  55  32 SW5       29.98F
6HR MIN TEMP:  81; 6HR MAX TEMP:  89;

ST PAUL        SUNNY     86  65  49 SW6       29.97F
CRYSTAL        SUNNY     86  59  39 W6        29.96F
BLAINE         SUNNY     88  61  40 SW5       29.98F
LAKEVILLE      SUNNY     82  70  65 CALM      29.99S
EDEN PRAIRIE   SUNNY     86  68  54 CALM      29.97F
6HR MIN TEMP:  80; 6HR MAX TEMP:  89;

SOUTH ST PAUL  SUNNY     87  58  38 CALM      29.97F
LAKE ELMO      FAIR      84  68  58 SW3       29.99F
$$
MNZ001>005-007-008-013>017-022>024-027-028-210100-
   Northwest Minnesota

CITY           SKY/WX    TMP DP  RH WIND       PRES   REMARKS
BEMIDJI        SUNNY     82  57  42 NW5       29.97S
HALLOCK        PTSUNNY   77  61  57 CALM      29.95S
ROSEAU         SUNNY     77  63  61 SW5       29.96S
WARROAD        SUNNY     75  63  64 SW5       29.96F
THIEF RVR FALL SUNNY     81  60  48 CALM      29.97
CROOKSTON      SUNNY     81  63  54 CALM      29.95S
FOSSTON        SUNNY     82  61  47 W5        29.97S
DETROIT LAKES  SUNNY     82  63  51 S6        29.97F
MOORHEAD       SUNNY     84  66  54 SE5       29.92F
PARK RAPIDS    SUNNY     86  61  42 SW10      29.96F
MAHNOMEN       FAIR      83  61  47 CALM      29.95F
$$
MNZ006-009>011-018-025>026-210100-
   North Central Minnesota

CITY           SKY/WX    TMP DP  RH WIND       PRES   REMARKS
BAUDETTE       SUNNY     75  54  47 NE3       29.96F
FLAG ISLAND    SUNNY     72  55  56 SE6       29.94F
INTL FALLS     SUNNY     74  55  51 NW6       29.96F
6HR MIN TEMP:  74; 6HR MAX TEMP:  79;

WASKISH        CLOUDY    79  61  53 SW6       29.96F
BIG FORK       SUNNY     81  57  44 CALM      29.97S
LONGVILLE      SUNNY     84  61  45 SW7       29.96S
GRAND RAPIDS   SUNNY     81  62  52 CALM      29.98F
CRANE LAKE     SUNNY     75  54  46 CALM      29.97F
ORR            SUNNY     77  57  50 CALM      29.94F
COOK           SUNNY     79  57  47 W3        29.96F
WALKER         FAIR      80  64  57 CALM      29.96S
$$
MNZ012-019>021-037-210100-
   Northeast Minnesota

CITY           SKY/WX    TMP DP  RH WIND       PRES   REMARKS
DULUTH         SUNNY     82  60  47 W7        29.96F
6HR MIN TEMP:  80; 6HR MAX TEMP:  84;

ELY            SUNNY     75  54  46 W5        29.97S
HIBBING        SUNNY     79  59  50 W5        29.96F
EVELETH        SUNNY     81  46  30 W6        29.98S
DULUTH HARBOR  SUNNY     84  68  58 SW9       29.93S
TWO HARBORS    SUNNY     82  64  54 CALM      29.93S
SILVER BAY     SUNNY     79  59  50 CALM      29.93S
GRAND MARAIS     N/A     60  56  86 W5        29.90F
G MARAIS ARPRT SUNNY     72  54  53 CALM      29.98S
$$
MNZ029>031-032-039>041-046>048-054>057-064-210100-
   West Central Minnesota

CITY           SKY/WX    TMP DP  RH WIND       PRES   REMARKS
FERGUS FALLS   SUNNY     82  68  61 S6        29.93F
WHEATON        SUNNY     82  66  57 SE9       29.93F
MORRIS         SUNNY     84  66  54 SE8       29.94F
ALEXANDRIA     MOSUNNY   82  67  60 S7        29.98F
ELBOW LAKE     FAIR      81  70  68 S5        29.96F
WADENA         SUNNY     82  64  54 SW6       29.96F
GLENWOOD       SUNNY     82  68  61 S8        29.98F
APPLETON       SUNNY     84  66  54 SE5       29.93F
BENSON         SUNNY     84  66  54 S8        29.96F
ORTONVILLE     SUNNY     82  70  65 SE6       29.93
MADISON        SUNNY     86  68  54 SE8       29.94F
WILLMAR        FAIR      84  72  65 SE3       29.98F
$$
MNZ033>034-036-042>043-049>051-058-059-210100-
   Central Minnesota

CITY           SKY/WX    TMP DP  RH WIND       PRES   REMARKS
ST CLOUD       SUNNY     84  65  52 SW6       29.98F
6HR MIN TEMP:  82; 6HR MAX TEMP:  87;

SAUK CENTRE    FAIR      82  68  61 S6        29.97F
PAYNESVILLE    SUNNY     84  68  59 S3        29.98F
AITKIN         SUNNY     81  64  57 S6        29.96F
PINE RIVER     SUNNY     82  64  54 SW5       29.99F
BRAINERD       SUNNY     82  65  56 SW12      29.97F
STAPLES        SUNNY     82  63  51 S7        29.97F
LONG PRAIRIE   FAIR      81  66  61 S7        29.98F
LITTLE FALLS   SUNNY     82  64  54 S5        29.97F
LITCHFIELD     SUNNY     86  70  58 CALM      29.98F HX  90
BUFFALO        SUNNY     84  65  51 CALM      29.99F
MAPLE LAKE     SUNNY     85  70  61 CALM      29.99F
HUTCHINSON     PTSUNNY   84  71  65 CALM      29.99F
$$
MNZ037-044-045-052-053-210100-
   East Central Minnesota

CITY           SKY/WX    TMP DP  RH WIND       PRES   REMARKS
PRINCETON      SUNNY     86  66  51 SW3       29.98F
MORA           SUNNY     81  63  54 W3        29.99F
CAMBRIDGE      SUNNY     84  66  54 S5        29.97S
RUSH CITY      SUNNY     83  66  56 SW5       29.98F
MOOSE LAKE     SUNNY     81  63  54 SW5       29.95F
HINCKLEY       FAIR      82  66  57 SW5       29.97F
CLOQUET        SUNNY     82  57  42 SW5       29.97S
MCGREGOR       SUNNY     82  54  36 CALM      29.98S
$$
MNZ071>073-080-081-089-090-097-098-210100-
   Southwest Minnesota

CITY           SKY/WX    TMP DP  RH WIND       PRES   REMARKS
MONTEVIDEO     SUNNY     84  66  54 S6        29.95F
GRANITE FALLS  SUNNY     86  68  55 SE6       29.97F
CANBY          SUNNY     85  67  54 CALM      29.95F
MARSHALL       SUNNY     84  70  62 E10       29.95F
REDWOOD FALLS  SUNNY     82  69  64 E6        29.96F
OLIVIA         SUNNY     82  64  54 SE6       29.97F
PIPESTONE      SUNNY     84  66  54 SE8       29.98F
WINDOM         SUNNY     82  70  65 E7        29.99F
WORTHINGTON    CLOUDY    83  69  62 E9        29.99F
JACKSON        MOSUNNY   82  70  65 CALM      30.00F
TRACY          SUNNY     83  73  69 E8        29.97F
SLAYTON        SUNNY     82  67  59 E8        30.00F
$$
MNZ065>067-074>077-082>085-091>093-210100-
   South Central Minnesota

CITY           SKY/WX    TMP DP  RH WIND       PRES   REMARKS
MANKATO        SUNNY     84  71  65 NE6       29.99F
NEW ULM        SUNNY     82  66  57 E7        29.98F
ST JAMES       SUNNY     82  73  74 NE6       29.99S
FAIRMONT       MOSUNNY   81  73  76 E6        29.99F
GLENCOE        SUNNY     85  72  66 CALM      29.98F HX  91
FARIBAULT      SUNNY     82  72  69 N3        30.00S
OWATONNA       SUNNY     84  72  65 NE6       30.00S
WASECA         SUNNY     82  70  65 NE8       30.01S
ALBERT LEA     CLOUDY    82  70  65 NE6       30.00R
$$
MNZ078>079-086>088-094>096-210100-
   Southeast Minnesota

CITY           SKY/WX    TMP DP  RH WIND       PRES   REMARKS
ROCHESTER      CLOUDY    81  72  74 NE10      30.01F
6HR MIN TEMP:  81; 6HR MAX TEMP:  85;

RED WING       SUNNY     84  66  54 CALM      29.97F
STANTON        SUNNY     84  70  61 CALM      29.98S
DODGE CENTER   CLOUDY    81  70  69 N5        30.01S
WINONA         SUNNY     81  70  69 NW5       29.98S
AUSTIN         CLOUDY    82  72  69 NE6       29.99S
PRESTON        SUNNY     78  70  76 N7        30.01S
$$
ABBREVIATIONS USED IN REMARKS
   TC - TEMPERATURES IN CELSIUS
  WCI - WIND CHILL INDEX
   HX - HEAT INDEX
  VSB - VISIBILITY
$$




USA.gov is the U.S. government's official web portal to all federal, state and local government web resources and services.